Nancy Ochey FAFB, France

2:41 PM CET on December 16, 2017 (GMT +0100)
Ochey Air Base

Weather History for LFSO - February, 2013

Change the Weather History Date:

Saturday, February 2, 2013

  Actual Average Record
Temperature  
Mean Temperature 35 °F -  
Max Temperature 40 °F 42 °F 60 °F (2002)
Min Temperature 30 °F 31 °F 12 °F (1998)
Degree Days  
Heating Degree Days 30    
Moisture  
Dew Point 32 °F    
Average Humidity 84    
Maximum Humidity 100    
Minimum Humidity 61    
Precipitation  
Precipitation 0.16 in - - ()
Sea Level Pressure  
Sea Level Pressure 29.67 in    
Wind  
Wind Speed 11 mph ()    
Max Wind Speed 21 mph    
Max Gust Speed 33 mph    
Visibility 6.3 miles    
Events Rain    
Averages and records for this station are not official NWS values.
T = Trace of Precipitation, MM = Missing Value Source: Averaged Metar Reports

Daily Weather History Graph

Daily Weather History Graph

Search for Another Location

Airport or City:

Trip Planner

Search our weather history database for the weather conditions in past years. The results will help you decide how hot, cold, wet, or windy it might be!

Date:

Astronomy

Feb. 02, 2013 Rise Set
Actual Time 8:04 AM CET 5:36 PM CET
Civil Twilight 7:30 AM CET 6:09 PM CET
Nautical Twilight 6:52 AM CET 6:47 PM CET
Astronomical Twilight 6:16 AM CET 7:24 PM CET
Moon No Moon Rise 10:27 AM CET (2/2)
Length of Visible Light 10h 39m
Length of Day
9h 32m
Waning Gibbous, 62% of the Moon is Illuminated
Feb 2
Waning Gibbous
Feb 3
Last Quarter
Feb 10
New
Feb 17
First Quarter
Feb 25
Full

Hourly Weather History & Observations

Time (CET) Temp. Windchill Dew Point Humidity Pressure Visibility Wind Dir Wind Speed Gust Speed Precip Events Conditions
12:00 AM 41.0 °F 34.3 °F 41.0 °F 100% 29.36 in 6.2 mi NW 11.5 mph - N/A Rain Light Rain
12:30 AM 41.0 °F 33.1 °F 39.2 °F 93% 29.36 in 4.3 mi NW 15.0 mph - N/A Rain Light Rain
1:00 AM 39 °F - 37 °F 89% 29.44 in 12 mi NW 13.8 mph - - Rain Light Rain
1:00 AM 39.2 °F 31.2 °F 37.4 °F 93% 29.39 in 6.2 mi NW 13.8 mph - N/A Rain Light Rain
1:30 AM 39.2 °F 31.6 °F 35.6 °F 87% 29.39 in 6.2 mi NNW 12.7 mph - N/A   Light Drizzle
2:00 AM 37.4 °F 29.8 °F 35.6 °F 93% 29.42 in 6.2 mi NW 11.5 mph - N/A   Overcast
2:30 AM 37.4 °F 29.8 °F 33.8 °F 87% 29.42 in 6.2 mi NNW 11.5 mph - N/A   Overcast
3:00 AM 37.4 °F 29.3 °F 33.8 °F 87% 29.44 in 6.2 mi NW 12.7 mph - N/A   Overcast
3:30 AM 37.4 °F 29.3 °F 33.8 °F 87% 29.47 in 6.2 mi NNW 12.7 mph - N/A   Overcast
4:00 AM 37.4 °F 29.3 °F 32.0 °F 81% 29.47 in 6.2 mi NW 12.7 mph - N/A   Mostly Cloudy
4:30 AM 35.6 °F 28.0 °F 32.0 °F 87% 29.47 in 6.2 mi NW 10.4 mph - N/A   Mostly Cloudy
5:00 AM 37.4 °F 29.8 °F 33.8 °F 87% 29.50 in 6.2 mi NW 11.5 mph - N/A   Overcast
5:30 AM 37.4 °F 30.8 °F 33.8 °F 87% 29.50 in 6.2 mi WNW 9.2 mph - N/A   Overcast
6:00 AM 37.4 °F 32.1 °F 33.8 °F 87% 29.53 in 6.2 mi WNW 6.9 mph - N/A   Mostly Cloudy
6:30 AM 35.6 °F 28.6 °F 33.8 °F 93% 29.56 in 6.2 mi WNW 9.2 mph - N/A   Overcast
7:00 AM 36 °F - 33 °F 86% 29.61 in 22 mi WNW 8.1 mph - -   Clear
7:00 AM 35.6 °F 29.2 °F 33.8 °F 93% 29.56 in 6.2 mi WNW 8.1 mph - N/A   Overcast
7:30 AM 35.6 °F 30.7 °F 33.8 °F 93% 29.56 in 6.2 mi West 5.8 mph - N/A   Mostly Cloudy
8:00 AM 35.6 °F 29.9 °F 33.8 °F 93% 29.59 in 6.2 mi West 6.9 mph - N/A   Overcast
8:30 AM 35.6 °F 29.9 °F 33.8 °F 93% 29.59 in 6.2 mi West 6.9 mph - N/A   Overcast
9:00 AM 35.6 °F 29.9 °F 33.8 °F 93% 29.62 in 6.2 mi West 6.9 mph - N/A   Overcast
9:30 AM 37.4 °F 32.8 °F 33.8 °F 87% 29.62 in 6.2 mi West 5.8 mph - N/A   Overcast
10:00 AM 37.4 °F 31.4 °F 35.6 °F 93% 29.65 in 6.2 mi West 8.1 mph - N/A   Overcast
10:30 AM 39.2 °F 33.6 °F 35.6 °F 87% 29.65 in 6.2 mi West 8.1 mph - N/A   Mostly Cloudy
11:00 AM 39.2 °F 31.6 °F 33.8 °F 81% 29.65 in 6.2 mi WNW 12.7 mph - N/A   Overcast
11:30 AM 41.0 °F 34.7 °F 33.8 °F 76% 29.65 in 6.2 mi WNW 10.4 mph - N/A   Mostly Cloudy
12:00 PM 39.2 °F 32.5 °F 33.8 °F 81% 29.65 in 6.2 mi WNW 10.4 mph - N/A Rain Light Rain
12:30 PM 37.4 °F 29.8 °F 35.6 °F 93% 29.65 in 6.2 mi WNW 11.5 mph - N/A   Overcast
1:00 PM 39 °F - 37 °F 89% 29.71 in 11 mi WNW 10.4 mph - -   Clear
1:00 PM 39.2 °F 32.5 °F 37.4 °F 93% 29.65 in 6.2 mi WNW 10.4 mph - N/A   Overcast
1:30 PM 39.2 °F 32.5 °F 37.4 °F 93% 29.65 in 6.2 mi NW 10.4 mph - N/A   Overcast
2:00 PM 39.2 °F 30.8 °F 35.6 °F 87% 29.65 in 4.3 mi NW 15.0 mph - N/A Rain Light Rain
2:30 PM 37.4 °F 27.8 °F 33.8 °F 87% 29.68 in 6.2 mi NNW 17.3 mph 28.8 mph N/A Rain Light Rain
3:00 PM 37.4 °F 27.2 °F 32.0 °F 81% 29.71 in 6.2 mi NNW 19.6 mph - N/A   Overcast
3:30 PM 37.4 °F 27.8 °F 32.0 °F 81% 29.71 in 6.2 mi NNW 17.3 mph - N/A   Overcast
4:00 PM 37.4 °F 26.9 °F 28.4 °F 70% 29.74 in 6.2 mi North 20.7 mph 33.4 mph N/A   Overcast
4:30 PM 37.4 °F 27.2 °F 28.4 °F 70% 29.77 in 6.2 mi North 19.6 mph - N/A   Mostly Cloudy
5:00 PM 35.6 °F 24.8 °F 28.4 °F 75% 29.77 in 6.2 mi NNW 19.6 mph - N/A   Mostly Cloudy
5:30 PM 35.6 °F 25.9 °F 24.8 °F 65% 29.80 in 6.2 mi NNW 16.1 mph - N/A   Unknown
6:00 PM 35.6 °F 26.2 °F 24.8 °F 65% 29.83 in 6.2 mi NNW 15.0 mph - N/A   Unknown
6:30 PM 33.8 °F 24.8 °F 24.8 °F 70% 29.86 in 6.2 mi North 12.7 mph - N/A   Unknown
7:00 PM 33 °F - 25 °F 61% 29.93 in 37 mi NNW 10.4 mph - -   Clear
7:00 PM 33.8 °F 25.8 °F 24.8 °F 70% 29.86 in 6.2 mi NNW 10.4 mph - N/A   Unknown
7:30 PM 33.8 °F 24.8 °F 26.6 °F 75% 29.89 in 6.2 mi NNW 12.7 mph - N/A   Unknown
8:00 PM 32.0 °F 24.2 °F 26.6 °F 80% 29.92 in 6.2 mi NNW 9.2 mph - N/A   Unknown
8:30 PM 32.0 °F 24.2 °F 26.6 °F 80% 29.92 in 6.2 mi NNW 9.2 mph - N/A   Unknown
9:00 PM 30.2 °F 23.4 °F 26.6 °F 86% 29.95 in 6.2 mi NNW 6.9 mph - N/A   Unknown
9:30 PM 32.0 °F 23.6 °F 26.6 °F 80% 29.95 in 6.2 mi NNW 10.4 mph - N/A   Unknown
10:00 PM 32.0 °F 24.2 °F 26.6 °F 80% 29.95 in 6.2 mi North 9.2 mph - N/A   Unknown
10:30 PM 30.2 °F 22.6 °F 26.6 °F 86% 29.98 in 6.2 mi North 8.1 mph - N/A   Unknown
11:00 PM 32.0 °F 24.2 °F 26.6 °F 80% 29.98 in 6.2 mi NNW 9.2 mph - N/A   Mostly Cloudy
11:30 PM 32.0 °F 23.0 °F 26.6 °F 80% 29.98 in 6.2 mi NNW 11.5 mph - N/A   Partly Cloudy